ROMMA est une association bénévole à but non lucratif. Votre soutien est indispensable : ADHERER à ROMMA ou FAIRE un DON

Chambon - (38, Isère)

Oisans (2460 m)   Longitude: 06° 10' 42" E   Latitude: 45° 01' 32" N Station partenaire n°803
 

Détail journalier du     <<     >>

Température Humidité Vent Dir Rafale Dir. rafale Neige 1 Neige 2
Heure (°C) (%) (km/h) (km/h) (cm) (cm)
01:00 8.3368SSE34S03
02:00 9.03317S47SSO03
03:00 8.53415S41S03
04:00 8.53914S38S03
05:00 8.24412S37S03
06:00 8.4489SSE27SSE03
07:00 8.0456SSE22SSE02
08:00 7.4472SSE14SSE03
09:00 8.5427SSE24S03
10:00 9.64310S24S03
11:00 10.9438S22S02
12:00 11.0414SE21SE02
13:00 11.2414S30S02
14:00 12.3388S29SSO02
15:00 11.73716SSO40SO03
16:00 11.34119SSO50SSO03
17:00 11.04724SSO54SSO03
18:00 9.95315SSO40SSO03
19:00 9.35910SO26SO03
20:00 9.1607SO16SO03
21:00 8.7616SO13SO03
22:00 8.5614NNE11SO03
23:00 8.0643NNE11NO03
minuit 8.7567S26SSO03

Graphique du 12-10-2019

 

Serveur OMMA